TimeCET,TemperatureF,Dew PointF,Humidity,Sea Level PressureIn,VisibilityMPH,Wind Direction,Wind SpeedMPH,Gust SpeedMPH,PrecipitationIn,Events,Conditions,WindDirDegrees,DateUTC
12:45 AM,55.4,46.4,72,29.44,6.2,SSE,19.6,-,N/A,Rain,Light Rain Showers,150,2012-11-28 23:45:00
1:00 AM,55,46,63,29.45,22,SSE,17.9,,,Rain,Light Rain Showers,150,2012-11-29 00:00:00
1:23 AM,55.4,46.4,72,29.44,6.2,SSE,19.6,-,N/A,Rain,Light Rain,150,2012-11-29 00:23:00
2:45 AM,53.6,48.2,82,29.47,6.2,SSE,15.0,-,N/A,Rain,Light Rain,160,2012-11-29 01:45:00
3:45 AM,51.8,48.2,88,29.44,6.2,SE,12.7,-,N/A,Rain,Light Rain,140,2012-11-29 02:45:00
4:45 AM,51.8,50.0,94,29.42,6.2,SE,15.0,-,N/A,Rain,Light Rain,130,2012-11-29 03:45:00
5:15 AM,51.8,50.0,94,29.42,-9999.0,SE,16.1,-,N/A,,Clear,140,2012-11-29 04:15:00
5:45 AM,51.8,50.0,94,29.42,-9999.0,SE,13.8,-,N/A,,Clear,140,2012-11-29 04:45:00
6:15 AM,51.8,50.0,94,29.42,-9999.0,SE,15.0,-,N/A,,Clear,140,2012-11-29 05:15:00
7:00 AM,53,50,86,29.39,22,SE,15.7,,,,Partly Cloudy,140,2012-11-29 06:00:00
7:15 AM,53.6,50.0,88,29.39,6.2,SE,17.3,-,N/A,,Mostly Cloudy,140,2012-11-29 06:15:00
7:45 AM,51.8,48.2,88,29.39,6.2,SE,17.3,-,N/A,,Scattered Clouds,140,2012-11-29 06:45:00
8:01 AM,53.6,48.2,82,29.39,-9999.0,SSE,20.7,-,N/A,,Unknown,150,2012-11-29 07:01:00
8:02 AM,53.6,48.2,82,29.39,6.2,SSE,19.6,-,N/A,,Mostly Cloudy,150,2012-11-29 07:02:00
8:15 AM,53.6,50.0,88,29.39,6.2,SSE,18.4,-,N/A,,Scattered Clouds,150,2012-11-29 07:15:00
8:45 AM,55.4,50.0,82,29.39,6.2,SSE,19.6,-,N/A,,Partly Cloudy,150,2012-11-29 07:45:00
9:15 AM,55.4,50.0,82,29.39,6.2,SSE,23.0,-,N/A,,Partly Cloudy,150,2012-11-29 08:15:00
9:45 AM,57.2,51.8,82,29.39,6.2,SSE,20.7,-,N/A,,Mostly Cloudy,160,2012-11-29 08:45:00
10:15 AM,59.0,51.8,77,29.39,-9999.0,SSE,23.0,-,N/A,,Clear,160,2012-11-29 09:15:00
10:45 AM,59.0,51.8,77,29.39,6.2,SSE,20.7,-,N/A,,Mostly Cloudy,160,2012-11-29 09:45:00
11:15 AM,59.0,50.0,72,29.39,-9999.0,SSE,20.7,-,N/A,,Clear,160,2012-11-29 10:15:00
11:45 AM,57.2,51.8,82,29.36,-9999.0,SSE,16.1,-,N/A,,Clear,160,2012-11-29 10:45:00
12:15 PM,57.2,50.0,77,29.36,6.2,SSE,17.3,-,N/A,,Mostly Cloudy,150,2012-11-29 11:15:00
12:45 PM,55.4,50.0,82,29.36,-9999.0,SSE,15.0,-,N/A,,Clear,150,2012-11-29 11:45:00
1:00 PM,56,50,75,29.34,28,SSE,15.7,,,,Scattered Clouds,150,2012-11-29 12:00:00
1:03 PM,57.2,50.0,77,29.36,-9999.0,SSE,16.1,27.6,N/A,,Unknown,150,2012-11-29 12:03:00
1:04 PM,57.2,50.0,77,29.36,-9999.0,SSE,17.3,-,N/A,,Clear,150,2012-11-29 12:04:00
1:15 PM,57.2,51.8,82,29.33,-9999.0,SSE,17.3,-,N/A,,Clear,150,2012-11-29 12:15:00
1:45 PM,57.2,51.8,82,29.33,-9999.0,SSE,16.1,-,N/A,,Clear,160,2012-11-29 12:45:00
2:15 PM,57.2,51.8,82,29.33,6.2,SSE,16.1,-,N/A,,Mostly Cloudy,150,2012-11-29 13:15:00
2:45 PM,57.2,51.8,82,29.36,6.2,South,13.8,-,N/A,,Scattered Clouds,170,2012-11-29 13:45:00
3:15 PM,57.2,51.8,82,29.36,-9999.0,South,13.8,-,N/A,,Clear,180,2012-11-29 14:15:00
3:45 PM,55.4,50.0,82,29.36,6.2,South,10.4,-,N/A,,Partly Cloudy,180,2012-11-29 14:45:00
4:15 PM,51.8,48.2,88,29.36,6.2,South,8.1,-,N/A,,Partly Cloudy,170,2012-11-29 15:15:00
4:45 PM,50.0,48.2,94,29.36,-9999.0,SE,5.8,-,N/A,,Clear,140,2012-11-29 15:45:00
5:15 PM,48.2,46.4,93,29.36,-9999.0,South,6.9,-,N/A,,Clear,190,2012-11-29 16:15:00
5:45 PM,48.2,44.6,87,29.39,-9999.0,South,6.9,-,N/A,,Clear,190,2012-11-29 16:45:00
6:15 PM,48.2,46.4,93,29.39,-9999.0,SSW,9.2,-,N/A,,Clear,200,2012-11-29 17:15:00
6:45 PM,48.2,46.4,93,29.39,-9999.0,SSW,11.5,-,N/A,,Clear,200,2012-11-29 17:45:00
7:00 PM,49,46,83,29.38,28,SSW,11.2,,,,Partly Cloudy,200,2012-11-29 18:00:00
7:15 PM,48.2,44.6,87,29.39,-9999.0,SSW,8.1,-,N/A,,Clear,200,2012-11-29 18:15:00
7:45 PM,46.4,44.6,93,29.39,-9999.0,South,8.1,-,N/A,,Clear,190,2012-11-29 18:45:00
8:15 PM,46.4,44.6,93,29.39,-9999.0,SSW,5.8,-,N/A,,Clear,200,2012-11-29 19:15:00
8:45 PM,48.2,44.6,87,29.42,-9999.0,SSW,8.1,-,N/A,,Clear,200,2012-11-29 19:45:00
9:45 PM,48.2,44.6,87,29.42,-9999.0,West,8.1,-,N/A,,Clear,270,2012-11-29 20:45:00
10:45 PM,48.2,44.6,87,29.44,6.2,NNW,4.6,-,N/A,Rain,Light Rain,340,2012-11-29 21:45:00
11:45 PM,46.4,42.8,87,29.47,-9999.0,North,11.5,-,N/A,,Clear,360,2012-11-29 22:45:00